Вернуться в каталог

STARLINK-37061

АктивенСвязьVLEO
NORAD 68185·PAYLOAD·🇺🇸 United States

Запущен Mar 14, 2026 с Vandenberg Space Force Base

Loading…

Ближайшие Пролёты (ближайшие 24 часа)

TLE

СвежийSource: CelesTrak SupGP

Эпоха: Sep 14, 2026, 21:18 UTC

1 68185C 26050U   26257.88798611 -.00036925  00000+0 -10911-2 0  2578
2 68185  53.1579 103.6356 0001262  84.8569 178.3713 15.34404477    15

Отслеживайте STARLINK-37061 в реальном времени с AllMySat

Download on the App Store